Location: Houhaj�rvi
(61.2833°N, 23.0000°E)
Time: 10:36:17
(UTC+00:00)

Cosmos 1900 - Pass Details

Date: 27 February 2020
Orbit: 691 x 731 km, 66.1° (Epoch: 29 March)

Event Time Altitude Azimuth Distance (km) Brightness Sun altitude
Rises 17:25:00 0° 296° (WNW) 3,075 9.1 -12.6°
Reaches altitude 10° 17:27:22 10° 300° (WNW) 2,158 8.0 -12.9°
Maximum altitude 17:32:14 63° 22° (NNE) 778 4.5 -13.5°
Enters shadow 17:35:26 21° 99° (E) 1,533 5.4 -13.9°
